contact:dominique.lefevre@mio.osupytheas.fr, maurice.libes@osupytheas.fr, didier.mallarino@osupytheas.fr
Project:EMSO http://www.emso-fr.org/EMSO-France
Depth: 2436.0 m
Title:EMSO Ligure Ouest : Data MII capteur CSTAR
DateTime,Latitude,Longitude,Instrument_Serial,Reference_Counts,Signal_Counts,Corrected_Signal_raw_counts,Calculated_Beam_c_inverse_meters,Internal_thermistor_counts
DateTime,Latitude,Longitude,Instrument_Serial,Reference_Counts,Signal_Counts,Corrected_Signal_raw_counts,Calculated_Beam_c_inverse_meters,Internal_thermistor_counts
2022-09-18T00:02:21,42.805,6.029,CST-1368DR,4580,5071,11787,01.125,551
2022-09-18T00:05:22,42.805,6.029,CST-1368DR,4580,5072,11789,01.125,551
2022-09-18T00:08:24,42.805,6.029,CST-1368DR,4580,5067,11776,01.129,551
2022-09-18T00:11:25,42.805,6.029,CST-1368DR,4580,5066,11775,01.129,551
2022-09-18T00:14:27,42.805,6.029,CST-1368DR,4580,5067,11776,01.129,551
2022-09-18T00:17:29,42.805,6.029,CST-1368DR,4580,5070,11783,01.127,551
2022-09-18T00:20:30,42.805,6.029,CST-1368DR,4580,5070,11785,01.126,551
2022-09-18T00:23:32,42.805,6.029,CST-1368DR,4580,5068,11778,01.128,551
2022-09-18T00:26:33,42.805,6.029,CST-1368DR,4580,5063,11768,01.132,551
2022-09-18T00:29:35,42.805,6.029,CST-1368DR,4580,5069,11782,01.127,551
2022-09-18T00:32:37,42.805,6.029,CST-1368DR,4580,5068,11779,01.128,551
2022-09-18T00:35:38,42.805,6.029,CST-1368DR,4580,5069,11782,01.127,551
2022-09-18T00:38:40,42.805,6.029,CST-1368DR,4580,5069,11781,01.127,551
2022-09-18T00:41:41,42.805,6.029,CST-1368DR,4580,5072,11789,01.125,551
2022-09-18T00:44:43,42.805,6.029,CST-1368DR,4580,5068,11779,01.128,551
2022-09-18T00:47:44,42.805,6.029,CST-1368DR,4580,5063,11767,01.132,551
2022-09-18T00:50:46,42.805,6.029,CST-1368DR,4580,5064,11769,01.131,551
2022-09-18T00:53:48,42.805,6.029,CST-1368DR,4580,5064,11770,01.131,551
2022-09-18T00:56:49,42.805,6.029,CST-1368DR,4580,5067,11777,01.129,551
2022-09-18T00:59:51,42.805,6.029,CST-1368DR,4580,5067,11778,01.128,551
2022-09-18T01:02:52,42.805,6.029,CST-1368DR,4580,5068,11778,01.128,551
2022-09-18T01:05:54,42.805,6.029,CST-1368DR,4580,5065,11771,01.131,551
2022-09-18T01:08:55,42.805,6.029,CST-1368DR,4580,5070,11783,01.127,551
2022-09-18T01:11:57,42.805,6.029,CST-1368DR,4580,5067,11777,01.129,551
2022-09-18T01:14:59,42.805,6.029,CST-1368DR,4580,5067,11776,01.129,551
2022-09-18T01:18:00,42.805,6.029,CST-1368DR,4580,5067,11777,01.129,551
2022-09-18T01:21:02,42.805,6.029,CST-1368DR,4580,5072,11788,01.125,551
2022-09-18T01:24:03,42.805,6.029,CST-1368DR,4580,5070,11785,01.126,551
2022-09-18T01:27:05,42.805,6.029,CST-1368DR,4580,5070,11783,01.127,551
2022-09-18T01:30:07,42.805,6.029,CST-1368DR,4580,5071,11786,01.126,551
2022-09-18T01:33:08,42.805,6.029,CST-1368DR,4580,5073,11790,01.124,551
2022-09-18T01:36:10,42.805,6.029,CST-1368DR,4580,5076,11798,01.121,551
2022-09-18T01:39:11,42.805,6.029,CST-1368DR,4580,5074,11793,01.123,551
2022-09-18T01:42:13,42.805,6.029,CST-1368DR,4580,5073,11791,01.124,551
2022-09-18T01:45:14,42.805,6.029,CST-1368DR,4580,5070,11783,01.127,551
2022-09-18T01:48:16,42.805,6.029,CST-1368DR,4580,5072,11789,01.125,551
2022-09-18T01:51:18,42.805,6.029,CST-1368DR,4580,5068,11780,01.128,551
2022-09-18T01:54:19,42.805,6.029,CST-1368DR,4580,5070,11783,01.127,551
2022-09-18T01:57:21,42.805,6.029,CST-1368DR,4580,5059,11758,01.135,551
2022-09-18T02:00:22,42.805,6.029,CST-1368DR,4580,5065,11772,01.130,551
2022-09-18T02:03:24,42.805,6.029,CST-1368DR,4580,5064,11769,01.131,551
2022-09-18T02:06:25,42.805,6.029,CST-1368DR,4580,5067,11776,01.129,551
2022-09-18T02:09:27,42.805,6.029,CST-1368DR,4580,5062,11765,01.133,551
2022-09-18T02:12:29,42.805,6.029,CST-1368DR,4580,5055,11750,01.138,551
2022-09-18T02:15:30,42.805,6.029,CST-1368DR,4580,5061,11764,01.133,551
2022-09-18T02:18:32,42.805,6.029,CST-1368DR,4580,5064,11769,01.131,551
2022-09-18T02:21:33,42.805,6.029,CST-1368DR,4580,5056,11752,01.137,551
2022-09-18T02:24:35,42.805,6.029,CST-1368DR,4580,5059,11759,01.135,551
2022-09-18T02:27:37,42.805,6.029,CST-1368DR,4580,5060,11760,01.134,551
2022-09-18T02:30:38,42.805,6.029,CST-1368DR,4580,5062,11764,01.133,551
2022-09-18T02:33:40,42.805,6.029,CST-1368DR,4580,5066,11774,01.130,551
2022-09-18T02:36:41,42.805,6.029,CST-1368DR,4580,5061,11762,01.134,551
2022-09-18T02:39:43,42.805,6.029,CST-1368DR,4580,5063,11767,01.132,551
2022-09-18T02:42:44,42.805,6.029,CST-1368DR,4580,5062,11764,01.133,551
2022-09-18T02:45:46,42.805,6.029,CST-1368DR,4580,5066,11774,01.130,551
2022-09-18T02:48:48,42.805,6.029,CST-1368DR,4580,5063,11768,01.132,551
2022-09-18T02:51:49,42.805,6.029,CST-1368DR,4580,5061,11764,01.133,551
2022-09-18T02:54:51,42.805,6.029,CST-1368DR,4580,5065,11772,01.130,551
2022-09-18T02:57:52,42.805,6.029,CST-1368DR,4580,5064,11770,01.131,551
2022-09-18T03:00:54,42.805,6.029,CST-1368DR,4580,5059,11758,01.135,551
2022-09-18T03:03:55,42.805,6.029,CST-1368DR,4580,5064,11770,01.131,551
2022-09-18T03:06:57,42.805,6.029,CST-1368DR,4580,5063,11767,01.132,551
2022-09-18T03:09:59,42.805,6.029,CST-1368DR,4580,5062,11766,01.132,551
2022-09-18T03:13:00,42.805,6.029,CST-1368DR,4580,5063,11767,01.132,551
2022-09-18T03:16:02,42.805,6.029,CST-1368DR,4580,5057,11753,01.137,551
2022-09-18T03:19:03,42.805,6.029,CST-1368DR,4580,5073,11790,01.124,551
2022-09-18T03:22:05,42.805,6.029,CST-1368DR,4580,5065,11772,01.130,551
2022-09-18T03:25:07,42.805,6.029,CST-1368DR,4580,5076,11797,01.122,551
2022-09-18T03:28:08,42.805,6.029,CST-1368DR,4580,5073,11790,01.124,551
2022-09-18T03:31:10,42.805,6.029,CST-1368DR,4580,5078,11803,01.120,551
2022-09-18T03:34:11,42.805,6.029,CST-1368DR,4580,5073,11792,01.123,551
2022-09-18T03:37:13,42.805,6.029,CST-1368DR,4580,5069,11782,01.127,551
2022-09-18T03:40:14,42.805,6.029,CST-1368DR,4580,5068,11780,01.128,551
2022-09-18T03:43:16,42.805,6.029,CST-1368DR,4580,5065,11772,01.130,551
2022-09-18T03:46:18,42.805,6.029,CST-1368DR,4580,5064,11770,01.131,551
2022-09-18T03:49:19,42.805,6.029,CST-1368DR,4580,5063,11767,01.132,551
2022-09-18T03:52:21,42.805,6.029,CST-1368DR,4580,5068,11780,01.128,551
2022-09-18T03:55:22,42.805,6.029,CST-1368DR,4580,5083,11814,01.116,551
2022-09-18T03:58:24,42.805,6.029,CST-1368DR,4580,5081,11810,01.117,551
2022-09-18T04:01:25,42.805,6.029,CST-1368DR,4580,5073,11790,01.124,551
2022-09-18T04:04:27,42.805,6.029,CST-1368DR,4580,5063,11767,01.132,551
2022-09-18T04:07:29,42.805,6.029,CST-1368DR,4580,5067,11777,01.129,551
2022-09-18T04:10:30,42.805,6.029,CST-1368DR,4580,5068,11778,01.128,551
2022-09-18T04:13:32,42.805,6.029,CST-1368DR,4580,5078,11801,01.120,551
2022-09-18T04:16:33,42.805,6.029,CST-1368DR,4580,5070,11783,01.127,551
2022-09-18T04:19:35,42.805,6.029,CST-1368DR,4580,5068,11779,01.128,551
2022-09-18T04:22:37,42.805,6.029,CST-1368DR,4580,5071,11786,01.126,551
2022-09-18T04:25:38,42.805,6.029,CST-1368DR,4580,5068,11780,01.128,551
2022-09-18T04:28:40,42.805,6.029,CST-1368DR,4580,5073,11790,01.124,551
2022-09-18T04:31:41,42.805,6.029,CST-1368DR,4580,5074,11793,01.123,551
2022-09-18T04:34:43,42.805,6.029,CST-1368DR,4580,5070,11783,01.127,551
2022-09-18T04:37:44,42.805,6.029,CST-1368DR,4580,5074,11792,01.123,551
2022-09-18T04:40:46,42.805,6.029,CST-1368DR,4580,5070,11785,01.126,551
2022-09-18T04:43:48,42.805,6.029,CST-1368DR,4580,5078,11802,01.120,551
2022-09-18T04:46:49,42.805,6.029,CST-1368DR,4580,5073,11790,01.124,551
2022-09-18T04:49:51,42.805,6.029,CST-1368DR,4580,5072,11788,01.125,551
2022-09-18T04:52:52,42.805,6.029,CST-1368DR,4580,5074,11794,01.123,551
2022-09-18T04:55:54,42.805,6.029,CST-1368DR,4580,5070,11783,01.127,551
2022-09-18T04:58:56,42.805,6.029,CST-1368DR,4580,5072,11788,01.125,551
2022-09-18T05:01:57,42.805,6.029,CST-1368DR,4580,5073,11791,01.124,551
2022-09-18T05:04:59,42.805,6.029,CST-1368DR,4580,5075,11796,01.122,551
2022-09-18T05:08:00,42.805,6.029,CST-1368DR,4580,5074,11793,01.123,551
2022-09-18T05:11:02,42.805,6.029,CST-1368DR,4580,5072,11789,01.125,551
2022-09-18T05:14:03,42.805,6.029,CST-1368DR,4580,5076,11797,01.122,551
2022-09-18T05:17:05,42.805,6.029,CST-1368DR,4580,5071,11786,01.126,551
2022-09-18T05:20:07,42.805,6.029,CST-1368DR,4580,5070,11784,01.126,551
2022-09-18T05:23:08,42.805,6.029,CST-1368DR,4580,5082,11813,01.116,551
2022-09-18T05:26:10,42.805,6.029,CST-1368DR,4580,5072,11789,01.125,551
2022-09-18T05:29:11,42.805,6.029,CST-1368DR,4580,5072,11789,01.125,551
2022-09-18T05:32:13,42.805,6.029,CST-1368DR,4580,5080,11806,01.119,551
2022-09-18T05:35:14,42.805,6.029,CST-1368DR,4580,5078,11803,01.120,551
2022-09-18T05:38:16,42.805,6.029,CST-1368DR,4580,5076,11797,01.122,551
2022-09-18T05:41:18,42.805,6.029,CST-1368DR,4580,5076,11797,01.122,551
2022-09-18T05:44:19,42.805,6.029,CST-1368DR,4580,5078,11803,01.120,551
2022-09-18T05:47:21,42.805,6.029,CST-1368DR,4580,5082,11811,01.117,551
2022-09-18T05:50:22,42.805,6.029,CST-1368DR,4580,5080,11807,01.118,551
2022-09-18T05:53:24,42.805,6.029,CST-1368DR,4580,5071,11785,01.126,551
2022-09-18T05:56:26,42.805,6.029,CST-1368DR,4580,5079,11806,01.119,551
2022-09-18T05:59:27,42.805,6.029,CST-1368DR,4580,5081,11809,01.118,551
2022-09-18T06:02:29,42.805,6.029,CST-1368DR,4580,5080,11806,01.119,551
2022-09-18T06:05:30,42.805,6.029,CST-1368DR,4580,5080,11806,01.119,551
2022-09-18T06:08:32,42.805,6.029,CST-1368DR,4580,5078,11802,01.120,551
2022-09-18T06:11:33,42.805,6.029,CST-1368DR,4580,5078,11803,01.120,551
2022-09-18T06:14:35,42.805,6.029,CST-1368DR,4580,5077,11801,01.120,551
2022-09-18T06:17:37,42.805,6.029,CST-1368DR,4580,5079,11806,01.119,551
2022-09-18T06:20:38,42.805,6.029,CST-1368DR,4580,5077,11801,01.120,551
2022-09-18T06:23:40,42.805,6.029,CST-1368DR,4580,5081,11809,01.118,551
2022-09-18T06:26:41,42.805,6.029,CST-1368DR,4580,5080,11806,01.119,551
2022-09-18T06:29:43,42.805,6.029,CST-1368DR,4580,5081,11809,01.118,551
2022-09-18T06:32:44,42.805,6.029,CST-1368DR,4580,5076,11799,01.121,551
2022-09-18T06:35:46,42.805,6.029,CST-1368DR,4580,5078,11801,01.120,551
2022-09-18T06:38:48,42.805,6.029,CST-1368DR,4580,5081,11809,01.118,551
2022-09-18T06:41:49,42.805,6.029,CST-1368DR,4580,5091,11832,01.110,551
2022-09-18T06:44:51,42.805,6.029,CST-1368DR,4580,5078,11801,01.120,551
2022-09-18T06:47:52,42.805,6.029,CST-1368DR,4580,5078,11802,01.120,551
2022-09-18T06:50:54,42.805,6.029,CST-1368DR,4580,5078,11802,01.120,551
2022-09-18T06:53:56,42.805,6.029,CST-1368DR,4580,5075,11795,01.122,551
2022-09-18T06:56:57,42.805,6.029,CST-1368DR,4580,5073,11790,01.124,551
2022-09-18T06:59:59,42.805,6.029,CST-1368DR,4580,5075,11795,01.122,551
2022-09-18T07:03:00,42.805,6.029,CST-1368DR,4580,5075,11795,01.122,551
2022-09-18T07:06:02,42.805,6.029,CST-1368DR,4580,5074,11793,01.123,551
2022-09-18T07:09:03,42.805,6.029,CST-1368DR,4580,5068,11779,01.128,551
2022-09-18T07:12:05,42.805,6.029,CST-1368DR,4580,5074,11793,01.123,551
2022-09-18T07:15:07,42.805,6.029,CST-1368DR,4580,5071,11786,01.126,551
2022-09-18T07:18:08,42.805,6.029,CST-1368DR,4580,5072,11788,01.125,551
2022-09-18T07:21:10,42.805,6.029,CST-1368DR,4580,5072,11788,01.125,551
2022-09-18T07:24:11,42.805,6.029,CST-1368DR,4580,5075,11796,01.122,551
2022-09-18T07:27:13,42.805,6.029,CST-1368DR,4580,5073,11791,01.124,551
2022-09-18T07:30:14,42.805,6.029,CST-1368DR,4580,5074,11792,01.123,551
2022-09-18T07:33:16,42.805,6.029,CST-1368DR,4580,5072,11789,01.125,551
2022-09-18T07:36:18,42.805,6.029,CST-1368DR,4580,5072,11788,01.125,551
2022-09-18T07:39:19,42.805,6.029,CST-1368DR,4580,5082,11811,01.117,551
2022-09-18T07:42:21,42.805,6.029,CST-1368DR,4579,5074,11795,01.122,551
2022-09-18T07:45:22,42.805,6.029,CST-1368DR,4580,5074,11792,01.123,551
2022-09-18T07:48:24,42.805,6.029,CST-1368DR,4580,5073,11790,01.124,551
2022-09-18T07:51:26,42.805,6.029,CST-1368DR,4580,5073,11792,01.123,551
2022-09-18T07:54:27,42.805,6.029,CST-1368DR,4580,5074,11792,01.123,551
2022-09-18T07:57:29,42.805,6.029,CST-1368DR,4579,5072,11792,01.123,551
2022-09-18T08:00:30,42.805,6.029,CST-1368DR,4580,5073,11790,01.124,551
2022-09-18T08:03:32,42.805,6.029,CST-1368DR,4580,5073,11791,01.124,551
2022-09-18T08:06:33,42.805,6.029,CST-1368DR,4580,5073,11790,01.124,551
2022-09-18T08:09:35,42.805,6.029,CST-1368DR,4579,5073,11793,01.123,551
2022-09-18T08:12:37,42.805,6.029,CST-1368DR,4580,5073,11790,01.124,551
2022-09-18T08:15:38,42.805,6.029,CST-1368DR,4579,5073,11793,01.123,551
2022-09-18T08:18:40,42.805,6.029,CST-1368DR,4579,5070,11787,01.125,551
2022-09-18T08:21:41,42.805,6.029,CST-1368DR,4579,5071,11788,01.125,551
2022-09-18T08:24:43,42.805,6.029,CST-1368DR,4579,5071,11789,01.125,551
2022-09-18T08:27:45,42.805,6.029,CST-1368DR,4579,5072,11790,01.124,551
2022-09-18T08:30:46,42.805,6.029,CST-1368DR,4579,5071,11788,01.125,551
2022-09-18T08:33:48,42.805,6.029,CST-1368DR,4579,5073,11792,01.123,551
2022-09-18T08:36:49,42.805,6.029,CST-1368DR,4579,5071,11789,01.125,551
2022-09-18T08:39:51,42.805,6.029,CST-1368DR,4579,5070,11786,01.126,551
2022-09-18T08:42:52,42.805,6.029,CST-1368DR,4579,5070,11787,01.125,551
2022-09-18T08:45:54,42.805,6.029,CST-1368DR,4579,5070,11787,01.125,551
2022-09-18T08:48:56,42.805,6.029,CST-1368DR,4579,5071,11789,01.125,551
2022-09-18T08:51:57,42.805,6.029,CST-1368DR,4579,5070,11785,01.126,551
2022-09-18T08:54:59,42.805,6.029,CST-1368DR,4579,5068,11782,01.127,551
2022-09-18T08:58:00,42.805,6.029,CST-1368DR,4579,5067,11779,01.128,551
2022-09-18T09:01:02,42.805,6.029,CST-1368DR,4579,5068,11782,01.127,551
2022-09-18T09:04:03,42.805,6.029,CST-1368DR,4579,5068,11781,01.127,551
2022-09-18T09:07:05,42.805,6.029,CST-1368DR,4579,5068,11781,01.127,551
2022-09-18T09:10:07,42.805,6.029,CST-1368DR,4579,5066,11778,01.128,551
2022-09-18T09:13:08,42.805,6.029,CST-1368DR,4579,5067,11780,01.128,551
2022-09-18T09:16:10,42.805,6.029,CST-1368DR,4579,5070,11785,01.126,551
2022-09-18T09:19:11,42.805,6.029,CST-1368DR,4579,5068,11781,01.127,550
2022-09-18T09:22:13,42.805,6.029,CST-1368DR,4579,5069,11784,01.126,551
2022-09-18T09:25:15,42.805,6.029,CST-1368DR,4579,5069,11784,01.126,551
2022-09-18T09:28:16,42.805,6.029,CST-1368DR,4579,5069,11784,01.126,551
2022-09-18T09:31:18,42.805,6.029,CST-1368DR,4579,5065,11775,01.129,551
2022-09-18T09:34:19,42.805,6.029,CST-1368DR,4579,5067,11780,01.128,551
2022-09-18T09:37:21,42.805,6.029,CST-1368DR,4579,5068,11782,01.127,551
2022-09-18T09:40:22,42.805,6.029,CST-1368DR,4579,5069,11784,01.126,551
2022-09-18T09:43:24,42.805,6.029,CST-1368DR,4579,5069,11784,01.126,551
2022-09-18T09:46:26,42.805,6.029,CST-1368DR,4579,5073,11794,01.123,551
2022-09-18T09:49:27,42.805,6.029,CST-1368DR,4579,5072,11790,01.124,551
2022-09-18T09:52:29,42.805,6.029,CST-1368DR,4579,5072,11792,01.123,551
2022-09-18T09:55:30,42.805,6.029,CST-1368DR,4579,5073,11792,01.123,551
2022-09-18T09:58:32,42.805,6.029,CST-1368DR,4579,5076,11799,01.121,551
2022-09-18T10:01:33,42.805,6.029,CST-1368DR,4579,5069,11785,01.126,551
2022-09-18T10:04:35,42.805,6.029,CST-1368DR,4579,5071,11788,01.125,551
2022-09-18T10:07:37,42.805,6.029,CST-1368DR,4579,5070,11787,01.125,551
2022-09-18T10:10:38,42.805,6.029,CST-1368DR,4579,5070,11787,01.125,551
2022-09-18T10:13:40,42.805,6.029,CST-1368DR,4579,5070,11787,01.125,551
2022-09-18T10:16:41,42.805,6.029,CST-1368DR,4579,5069,11785,01.126,551
2022-09-18T10:19:43,42.805,6.029,CST-1368DR,4579,5070,11785,01.126,551
2022-09-18T10:22:45,42.805,6.029,CST-1368DR,4579,5069,11784,01.126,551
2022-09-18T10:25:46,42.805,6.029,CST-1368DR,4579,5068,11781,01.127,551
2022-09-18T10:28:48,42.805,6.029,CST-1368DR,4579,5069,11784,01.126,551
2022-09-18T10:31:49,42.805,6.029,CST-1368DR,4579,5070,11786,01.126,551
2022-09-18T10:34:51,42.805,6.029,CST-1368DR,4579,5068,11782,01.127,551
2022-09-18T10:37:52,42.805,6.029,CST-1368DR,4579,5067,11780,01.128,551
2022-09-18T10:40:54,42.805,6.029,CST-1368DR,4579,5069,11785,01.126,551
2022-09-18T10:43:56,42.805,6.029,CST-1368DR,4579,5070,11785,01.126,551
2022-09-18T10:46:57,42.805,6.029,CST-1368DR,4579,5069,11784,01.126,551
2022-09-18T10:49:59,42.805,6.029,CST-1368DR,4579,5071,11789,01.125,551
2022-09-18T10:53:00,42.805,6.029,CST-1368DR,4579,5070,11787,01.125,551
2022-09-18T10:56:02,42.805,6.029,CST-1368DR,4579,5069,11785,01.126,551
2022-09-18T10:59:03,42.805,6.029,CST-1368DR,4579,5070,11785,01.126,551
2022-09-18T11:02:05,42.805,6.029,CST-1368DR,4579,5070,11787,01.125,551
2022-09-18T11:05:07,42.805,6.029,CST-1368DR,4579,5068,11782,01.127,551
2022-09-18T11:08:08,42.805,6.029,CST-1368DR,4579,5070,11785,01.126,551
2022-09-18T11:11:10,42.805,6.029,CST-1368DR,4579,5069,11784,01.126,551
2022-09-18T11:14:11,42.805,6.029,CST-1368DR,4579,5070,11787,01.125,551
2022-09-18T11:17:13,42.805,6.029,CST-1368DR,4579,5071,11788,01.125,551
2022-09-18T11:20:15,42.805,6.029,CST-1368DR,4579,5071,11788,01.125,551
2022-09-18T11:23:16,42.805,6.029,CST-1368DR,4579,5070,11785,01.126,551
2022-09-18T11:26:18,42.805,6.029,CST-1368DR,4579,5070,11787,01.125,551
2022-09-18T11:29:19,42.805,6.029,CST-1368DR,4579,5071,11789,01.125,551
2022-09-18T11:32:21,42.805,6.029,CST-1368DR,4579,5069,11785,01.126,551
2022-09-18T11:35:22,42.805,6.029,CST-1368DR,4579,5071,11788,01.125,551
2022-09-18T11:38:24,42.805,6.029,CST-1368DR,4579,5071,11788,01.125,551
2022-09-18T11:41:26,42.805,6.029,CST-1368DR,4579,5072,11790,01.124,551
2022-09-18T11:44:27,42.805,6.029,CST-1368DR,4579,5071,11788,01.125,551
2022-09-18T11:47:29,42.805,6.029,CST-1368DR,4579,5071,11789,01.125,551
2022-09-18T11:50:30,42.805,6.029,CST-1368DR,4579,5070,11787,01.125,551
2022-09-18T11:53:32,42.805,6.029,CST-1368DR,4579,5070,11785,01.126,551
2022-09-18T11:56:33,42.805,6.029,CST-1368DR,4579,5070,11786,01.126,551
2022-09-18T11:59:35,42.805,6.029,CST-1368DR,4579,5071,11788,01.125,551
2022-09-18T12:02:37,42.805,6.029,CST-1368DR,4579,5071,11788,01.125,551
2022-09-18T12:05:38,42.805,6.029,CST-1368DR,4579,5070,11787,01.125,551
2022-09-18T12:08:40,42.805,6.029,CST-1368DR,4579,5068,11781,01.127,551
2022-09-18T12:11:41,42.805,6.029,CST-1368DR,4579,5072,11792,01.123,551
2022-09-18T12:14:43,42.805,6.029,CST-1368DR,4579,5073,11792,01.123,551
2022-09-18T12:17:45,42.805,6.029,CST-1368DR,4579,5072,11791,01.124,551
2022-09-18T12:20:46,42.805,6.029,CST-1368DR,4579,5066,11776,01.129,551
2022-09-18T12:23:48,42.805,6.029,CST-1368DR,4579,5071,11789,01.125,551
2022-09-18T12:26:49,42.805,6.029,CST-1368DR,4579,5072,11791,01.124,551
2022-09-18T12:29:51,42.805,6.029,CST-1368DR,4579,5072,11791,01.124,551
2022-09-18T12:32:52,42.805,6.029,CST-1368DR,4579,5072,11792,01.123,551
2022-09-18T12:35:54,42.805,6.029,CST-1368DR,4579,5071,11789,01.125,551
2022-09-18T12:38:56,42.805,6.029,CST-1368DR,4579,5071,11789,01.125,551
2022-09-18T12:41:57,42.805,6.029,CST-1368DR,4579,5068,11782,01.127,550
2022-09-18T12:44:59,42.805,6.029,CST-1368DR,4579,5072,11790,01.124,551
2022-09-18T12:48:00,42.805,6.029,CST-1368DR,4579,5071,11789,01.125,551
2022-09-18T12:51:02,42.805,6.029,CST-1368DR,4579,5073,11793,01.123,551
2022-09-18T12:54:04,42.805,6.029,CST-1368DR,4579,5076,11801,01.120,551
2022-09-18T12:57:05,42.805,6.029,CST-1368DR,4579,5074,11795,01.122,551
2022-09-18T13:00:07,42.805,6.029,CST-1368DR,4579,5074,11796,01.122,551
2022-09-18T13:03:08,42.805,6.029,CST-1368DR,4579,5071,11789,01.125,551
2022-09-18T13:06:10,42.805,6.029,CST-1368DR,4578,5074,11798,01.121,551
2022-09-18T13:09:11,42.805,6.029,CST-1368DR,4578,5072,11792,01.123,551
2022-09-18T13:12:13,42.805,6.029,CST-1368DR,4578,5072,11794,01.123,551
2022-09-18T13:15:15,42.805,6.029,CST-1368DR,4578,5073,11795,01.122,551
2022-09-18T13:18:16,42.805,6.029,CST-1368DR,4578,5072,11793,01.123,551
2022-09-18T13:21:18,42.805,6.029,CST-1368DR,4578,5073,11795,01.122,551
2022-09-18T13:24:19,42.805,6.029,CST-1368DR,4578,5073,11797,01.122,551
2022-09-18T13:27:21,42.805,6.029,CST-1368DR,4578,5073,11796,01.122,551
2022-09-18T13:30:22,42.805,6.029,CST-1368DR,4578,5084,11822,01.113,551
2022-09-18T13:33:24,42.805,6.029,CST-1368DR,4578,5078,11808,01.118,551
2022-09-18T13:36:26,42.805,6.029,CST-1368DR,4578,5079,11810,01.117,551
2022-09-18T13:39:27,42.805,6.029,CST-1368DR,4578,5078,11807,01.118,551
2022-09-18T13:42:29,42.805,6.029,CST-1368DR,4578,5077,11805,01.119,551
2022-09-18T13:45:30,42.805,6.029,CST-1368DR,4578,5076,11804,01.119,551
2022-09-18T13:48:32,42.805,6.029,CST-1368DR,4578,5079,11810,01.117,551
2022-09-18T13:51:34,42.805,6.029,CST-1368DR,4578,5078,11808,01.118,551
2022-09-18T13:54:35,42.805,6.029,CST-1368DR,4578,5077,11806,01.119,551
2022-09-18T13:57:37,42.805,6.029,CST-1368DR,4578,5077,11805,01.119,551
2022-09-18T14:00:38,42.805,6.029,CST-1368DR,4578,5076,11803,01.120,550
2022-09-18T14:03:40,42.805,6.029,CST-1368DR,4578,5076,11802,01.120,551
2022-09-18T14:06:41,42.805,6.029,CST-1368DR,4578,5076,11802,01.120,551
2022-09-18T14:09:43,42.805,6.029,CST-1368DR,4578,5076,11803,01.120,551
2022-09-18T14:12:45,42.805,6.029,CST-1368DR,4578,5076,11802,01.120,551
2022-09-18T14:15:46,42.805,6.029,CST-1368DR,4578,5075,11800,01.121,551
2022-09-18T14:18:48,42.805,6.029,CST-1368DR,4578,5076,11802,01.120,551
2022-09-18T14:21:49,42.805,6.029,CST-1368DR,4578,5074,11799,01.121,551
2022-09-18T14:24:51,42.805,6.029,CST-1368DR,4578,5075,11801,01.120,551
2022-09-18T14:27:52,42.805,6.029,CST-1368DR,4578,5080,11812,01.117,551
2022-09-18T14:30:54,42.805,6.029,CST-1368DR,4579,5084,11819,01.114,551
2022-09-18T14:33:56,42.805,6.029,CST-1368DR,4578,5088,11830,01.111,551
2022-09-18T14:36:57,42.805,6.029,CST-1368DR,4578,5083,11820,01.114,551
2022-09-18T14:39:59,42.805,6.029,CST-1368DR,4579,5080,11809,01.118,551
2022-09-18T14:43:00,42.805,6.029,CST-1368DR,4578,5076,11802,01.120,551
2022-09-18T14:46:02,42.805,6.029,CST-1368DR,4578,5078,11808,01.118,551
2022-09-18T14:49:04,42.805,6.029,CST-1368DR,4579,5078,11804,01.119,551
2022-09-18T14:52:05,42.805,6.029,CST-1368DR,4578,5079,11809,01.118,551
2022-09-18T14:55:07,42.805,6.029,CST-1368DR,4579,5078,11804,01.119,551
2022-09-18T14:58:08,42.805,6.029,CST-1368DR,4579,5078,11805,01.119,551
2022-09-18T15:01:10,42.805,6.029,CST-1368DR,4579,5078,11804,01.119,551
2022-09-18T15:04:11,42.805,6.029,CST-1368DR,4579,5079,11808,01.118,551
2022-09-18T15:07:13,42.805,6.029,CST-1368DR,4579,5081,11811,01.117,551
2022-09-18T15:10:15,42.805,6.029,CST-1368DR,4579,5081,11811,01.117,551
2022-09-18T15:13:16,42.805,6.029,CST-1368DR,4579,5081,11813,01.116,551
2022-09-18T15:16:18,42.805,6.029,CST-1368DR,4579,5083,11816,01.115,551
2022-09-18T15:19:19,42.805,6.029,CST-1368DR,4579,5080,11809,01.118,551
2022-09-18T15:22:21,42.805,6.029,CST-1368DR,4579,5079,11807,01.118,551
2022-09-18T15:25:22,42.805,6.029,CST-1368DR,4579,5080,11810,01.117,551
2022-09-18T15:28:24,42.805,6.029,CST-1368DR,4579,5082,11814,01.116,551
2022-09-18T15:31:26,42.805,6.029,CST-1368DR,4579,5084,11818,01.115,551
2022-09-18T15:34:27,42.805,6.029,CST-1368DR,4579,5080,11809,01.118,551
2022-09-18T15:37:29,42.805,6.029,CST-1368DR,4579,5082,11814,01.116,551
2022-09-18T15:40:30,42.805,6.029,CST-1368DR,4579,5078,11806,01.119,551
2022-09-18T15:43:32,42.805,6.029,CST-1368DR,4579,5080,11809,01.118,551
2022-09-18T15:46:34,42.805,6.029,CST-1368DR,4579,5079,11808,01.118,551
2022-09-18T15:49:35,42.805,6.029,CST-1368DR,4579,5082,11815,01.116,551
2022-09-18T15:52:37,42.805,6.029,CST-1368DR,4579,5084,11818,01.115,551
2022-09-18T15:55:38,42.805,6.029,CST-1368DR,4579,5080,11810,01.117,551
2022-09-18T15:58:40,42.805,6.029,CST-1368DR,4579,5080,11810,01.117,551
2022-09-18T16:01:41,42.805,6.029,CST-1368DR,4579,5080,11810,01.117,551
2022-09-18T16:04:43,42.805,6.029,CST-1368DR,4579,5080,11810,01.117,551
2022-09-18T16:07:45,42.805,6.029,CST-1368DR,4579,5078,11805,01.119,551
2022-09-18T16:10:46,42.805,6.029,CST-1368DR,4579,5085,11821,01.114,551
2022-09-18T16:13:48,42.805,6.029,CST-1368DR,4579,5081,11812,01.117,551
2022-09-18T16:16:49,42.805,6.029,CST-1368DR,4579,5080,11809,01.118,551
2022-09-18T16:19:51,42.805,6.029,CST-1368DR,4579,5080,11810,01.117,551
2022-09-18T16:22:52,42.805,6.029,CST-1368DR,4579,5084,11819,01.114,551
2022-09-18T16:25:54,42.805,6.029,CST-1368DR,4579,5082,11815,01.116,551
2022-09-18T16:28:56,42.805,6.029,CST-1368DR,4579,5079,11808,01.118,551
2022-09-18T16:31:57,42.805,6.029,CST-1368DR,4579,5081,11813,01.116,551
2022-09-18T16:34:59,42.805,6.029,CST-1368DR,4579,5083,11816,01.115,551
2022-09-18T16:38:00,42.805,6.029,CST-1368DR,4579,5082,11814,01.116,551